This is the latest recevied weather packets stored in our database for station/object KA9CBS. If no packets are shown the sender has not sent any weather packets the latest 10 day(s).
| Time | Temp. | Humidity | Pressure | Rain* | Wind** | Luminosity | Snow |
|---|---|---|---|---|---|---|---|
| 1787937466 | 27.78° C | 58% | 1022.4 hPa | 0 mm | - | 702 W/m² | - |
| 1787937163 | 28.33° C | 61% | 1022.6 hPa | 0 mm | - | 720 W/m² | - |
| 1787936857 | 27.78° C | 62% | 1022.4 hPa | 0 mm | - | 712 W/m² | - |
| 1787936552 | 27.22° C | 64% | 1022.5 hPa | 0 mm | - | 631 W/m² | - |
| 1787936251 | 27.78° C | 62% | 1022.6 hPa | 0 mm | - | 154 W/m² | - |
| 1787935947 | 27.78° C | 63% | 1022.6 hPa | 0 mm | - | 741 W/m² | - |
| 1787935647 | 27.78° C | 65% | 1022.7 hPa | 0 mm | - | 710 W/m² | - |
| 1787935343 | 27.78° C | 63% | 1022.7 hPa | 0 mm | - | 781 W/m² | - |
| 1787935039 | 27.78° C | 63% | 1022.6 hPa | 0 mm | - | 689 W/m² | - |
| 1787934734 | 27.22° C | 67% | 1022.6 hPa | 0 mm | - | 676 W/m² | - |
| 1787934432 | 27.78° C | 65% | 1022.6 hPa | 0 mm | - | 366 W/m² | - |
| 1787934127 | 27.22° C | 63% | 1022.6 hPa | 0 mm | - | 660 W/m² | - |
| 1787933825 | 27.22° C | 65% | 1022.6 hPa | 0 mm | - | 611 W/m² | - |
| 1787933516 | 26.67° C | 69% | 1022.4 hPa | 0 mm | - | 381 W/m² | - |
| 1787933216 | 26.11° C | 68% | 1022.7 hPa | 0 mm | - | 180 W/m² | - |
| 1787932910 | 26.11° C | 68% | 1022.8 hPa | 0 mm | - | 161 W/m² | - |
| 1787932603 | 26.11° C | 69% | 1022.8 hPa | 0 mm | - | 148 W/m² | - |
| 1787932303 | 26.67° C | 69% | 1022.5 hPa | 0 mm | - | 488 W/m² | - |
| 1787931998 | 26.67° C | 69% | 1022.5 hPa | 0 mm | - | 307 W/m² | - |
| 1787931697 | 26.11° C | 69% | 1022.4 hPa | 0 mm | - | 547 W/m² | - |
| 1787931392 | 26.11° C | 69% | 1022.5 hPa | 0 mm | - | 522 W/m² | - |
| 1787931087 | 26.11° C | 68% | 1022.4 hPa | 0 mm | - | 482 W/m² | - |
| 1787930780 | 26.11° C | 68% | 1022.4 hPa | 0 mm | - | 440 W/m² | - |
| 1787930480 | 26.67° C | 70% | 1022.5 hPa | 0 mm | - | 459 W/m² | - |
| 1787930176 | 26.11° C | 71% | 1022.4 hPa | 0 mm | - | 495 W/m² | - |
* Rain latest hour (hover to see other rain measurements)
** Current wind speed in m/s (hover to see current wind gust speed)